INTELSAT 23 (IS-23)

Last updated on Tue Sep 22 2026 00:03:12 GMT+0000 (Coordinated Universal Time)

1 38867U 12057A 26264.33601666 -.00000289 00000+0 00000+0 0 9996 2 38867 0.0197 254.0286 0001079 328.2488 205.9218 1.00276306 50917
UTC large
Height (km)
Speed (km/s)
/
Latitude / Longitude
Inclination (degrees)
Orbital Period (minutes)
Azimuth
Elevation
Range (km)
Doppler Factor

Next 0 passes for location: London (51.5072 / 0.1276)

No passes found over London.
INTELSAT 23 (IS-23)